Location: Herm
(49.4830°N, 2.4500°W)
Time: 19:29:14
(UTC+00:00)

VELOX 1 - Pass Details

Date: 04 November 2021
Orbit: 627 x 641 km, 98.3° (Epoch: 03 December)

Event Time Altitude Azimuth Distance (km) Brightness Sun altitude
Rises 17:38:56 0° 8° (N) 2,959 ? -9.5°
Reaches altitude 10° 17:41:16 10° 360° (N) 2,046 ? -9.9°
Maximum altitude 17:45:21 37° 293° (WNW) 1,001 ? -10.5°
Drops below altitude 10° 17:49:26 10° 227° (SW) 2,034 ? -11.2°
Sets 17:51:44 0° 219° (SW) 2,939 ? -11.5°
